Location: Bílinka
(49.3579°N, 14.3767°E)
Time: 20:35:18
(UTC+00:00)

PSLV R/B - Pass Details

Date: 31 March 2025
Orbit: 410 x 442 km, 97.7° (Epoch: 28 April)

Event Time Altitude Azimuth Distance (km) Brightness Sun altitude
Exits shadow 21:17:46 11° 299° (WNW) 1,478 6.7 -31.2°
Drops below altitude 10° 21:18:06 10° 303° (WNW) 1,550 6.8 -31.2°
Sets 21:20:50 0° 329° (NNW) 2,414 8.3 -31.5°
